Weather in Kilmez

Russia / Kirov Oblast     56°56′37″N   51°03′59″E
temp.,
°C
wind,
m/s
gust,
m/s
humid.,
%
clouds,
%
prec.,
mm/h
press.,
hPa
HPBL,
m
27 june, mon
mon2700:00+10nw118968 0.0 101710
03:00+9wsw1190100 0.0 101712
06:00+15wsw376268 0.0 1015223
09:00+21w5957100 0.0 1013828
12:00+23w696296 0.6 10111314
15:00+21nw498972 2.4 1009924
18:00+17n511865 1.5 10111058
21:00+13nne510670 1.5 1014870
28 june, tue
tue2800:00+7n22820 0.0 101639
03:00+5nnw24915 0.0 101787
06:00+9n496136 0.0 1017923
09:00+12n57425 0.0 10171787
12:00+13n694578 0.0 10172045
15:00+14n694595 0.0 10172132
18:00+12nne4115421 0.0 10181315
21:00+7nw247787 0.0 101875
29 june, wed
wed2900:00+7n4107793 0.0 1019582
03:00+5nw26865 0.0 1019134
06:00+11nnw376222 0.0 1019411
09:00+16nnw47450 0.0 10181349
12:00+19n57395 0.0 10171697
15:00+19nnw57385 0.0 10161790
18:00+18nnw3751100 0.0 1015872
21:00+13nw3107492 0.0 1014269
30 june, thu
thu3000:00+10nw2777100 0.0 1013140
03:00+9w3878100 0.0 1011169
06:00+13nw376270 0.0 1010315
09:00+15n585757 0.1 10101455
12:00+16nne595096 1.7 10112191
15:00+16nne694589 1.7 10122437
18:00+13nne595763 0.0 10141422
21:00+9n2872100 0.0 1015217
1 july, fri
fri100:00+7n2882100 0.0 1016177
03:00+5nnw288587 0.0 1017150
06:00+11n37635 0.0 1017322
09:00+17n464248 0.0 10161589
12:00+19n563783 0.0 10151920
15:00+20nnw57405 0.0 10142038
18:00+19nnw37525 0.0 10141141
21:00+13wnw24765 0.0 101468